Hourly Weather Allur Reservior Lake

Today, 28 February, Sunday

Time Temperature Precipitation Wind Pressure Humidity
00:00 +25°C° 0 mm 4 mps 756 mmHg 82%
01:00 +25°C° 0 mm 3 mps 755 mmHg 83%
02:00 +24°C° 0 mm 3 mps 755 mmHg 83%
03:00 +24°C° 0 mm 3 mps 755 mmHg 81%
04:00 +23°C° 0 mm 2 mps 755 mmHg 80%
05:00 +23°C° 0 mm 2 mps 755 mmHg 78%
06:00 +25°C° 0 mm 2 mps 756 mmHg 69%
07:00 +27°C° 0 mm 2 mps 756 mmHg 60%
08:00 +29°C° 0 mm 2 mps 757 mmHg 51%
09:00 +31°C° 0 mm 3 mps 757 mmHg 44%
10:00 +34°C° 0 mm 4 mps 757 mmHg 36%
11:00 +36°C° 0 mm 5 mps 757 mmHg 29%
12:00 +37°C° 0 mm 5 mps 756 mmHg 29%
13:00 +37°C° 0 mm 5 mps 756 mmHg 29%
14:00 +37°C° 0 mm 5 mps 755 mmHg 29%
15:00 +35°C° 0 mm 5 mps 755 mmHg 37%
16:00 +33°C° 0 mm 5 mps 755 mmHg 44%
17:00 +32°C° 0 mm 4 mps 755 mmHg 49%
18:00 +29°C° 0 mm 4 mps 756 mmHg 57%
19:00 +28°C° 0 mm 4 mps 757 mmHg 65%
20:00 +26°C° 0 mm 4 mps 758 mmHg 73%
21:00 +26°C° 0 mm 4 mps 758 mmHg 75%
22:00 +26°C° 0 mm 5 mps 758 mmHg 77%
23:00 +25°C° 0 mm 5 mps 758 mmHg 79%

Tomorrow, 1 March, Monday

Time Temperature Precipitation Wind Pressure Humidity
00:00 +25°C° 0 mm 5 mps 757 mmHg 80%
01:00 +23°C° 0 mm 5 mps 757 mmHg 80%
02:00 +23°C° 0 mm 5 mps 756 mmHg 81%
03:00 +22°C° 0 mm 4 mps 756 mmHg 79%
04:00 +22°C° 0 mm 4 mps 756 mmHg 77%
05:00 +21°C° 0 mm 3 mps 756 mmHg 75%
06:00 +24°C° 0 mm 3 mps 757 mmHg 66%
07:00 +26°C° 0 mm 2 mps 758 mmHg 57%
08:00 +28°C° 0 mm 2 mps 759 mmHg 48%
09:00 +30°C° 0 mm 2 mps 759 mmHg 42%
10:00 +34°C° 0 mm 3 mps 759 mmHg 35%
11:00 +36°C° 0 mm 4 mps 759 mmHg 28%
12:00 +36°C° 0 mm 4 mps 758 mmHg 29%
13:00 +36°C° 0 mm 5 mps 757 mmHg 31%
14:00 +36°C° 0 mm 5 mps 757 mmHg 32%
15:00 +35°C° 0 mm 5 mps 757 mmHg 39%
16:00 +33°C° 0 mm 5 mps 757 mmHg 45%
17:00 +32°C° 0 mm 4 mps 757 mmHg 52%
18:00 +29°C° 0 mm 4 mps 757 mmHg 60%
19:00 +28°C° 0 mm 4 mps 758 mmHg 68%
20:00 +26°C° 0 mm 4 mps 759 mmHg 76%
21:00 +26°C° 0 mm 5 mps 759 mmHg 78%
22:00 +26°C° 0 mm 5 mps 759 mmHg 79%
23:00 +26°C° 0 mm 6 mps 759 mmHg 81%

Day after tomorrow, 2 March, Tuesday

Time Temperature Precipitation Wind Pressure Humidity
00:00 +25°C° 0 mm 5 mps 758 mmHg 81%
01:00 +23°C° 0 mm 5 mps 757 mmHg 82%
02:00 +23°C° 0 mm 4 mps 757 mmHg 83%
03:00 +22°C° 0 mm 4 mps 757 mmHg 80%
04:00 +22°C° 0 mm 4 mps 757 mmHg 77%
05:00 +22°C° 0 mm 4 mps 757 mmHg 75%
06:00 +25°C° 0 mm 4 mps 758 mmHg 67%
07:00 +26°C° 0 mm 4 mps 758 mmHg 60%
08:00 +28°C° 0 mm 4 mps 759 mmHg 52%
09:00 +32°C° 0 mm 4 mps 759 mmHg 43%
10:00 +34°C° 0 mm 4 mps 759 mmHg 34%
11:00 +37°C° 0 mm 4 mps 759 mmHg 25%
12:00 +37°C° 0 mm 5 mps 758 mmHg 26%
13:00 +37°C° 0 mm 5 mps 757 mmHg 27%
14:00 +37°C° 0 mm 5 mps 756 mmHg 27%
15:00 +35°C° 0 mm 5 mps 756 mmHg 35%
16:00 +34°C° 0 mm 5 mps 756 mmHg 43%
17:00 +32°C° 0 mm 5 mps 756 mmHg 50%
18:00 +29°C° 0 mm 5 mps 757 mmHg 58%
19:00 +28°C° 0 mm 4 mps 757 mmHg 67%
20:00 +27°C° 0 mm 4 mps 758 mmHg 75%
21:00 +26°C° 0 mm 4 mps 758 mmHg 76%
22:00 +26°C° 0 mm 5 mps 758 mmHg 78%
23:00 +25°C° 0 mm 5 mps 757 mmHg 79%

3 March, Wednesday

Time Temperature Precipitation Wind Pressure Humidity
00:00 +25°C° 0 mm 5 mps 757 mmHg 78%
01:00 +25°C° 0 mm 5 mps 756 mmHg 77%
02:00 +23°C° 0 mm 5 mps 756 mmHg 76%
03:00 +23°C° 0 mm 5 mps 756 mmHg 75%
04:00 +22°C° 0 mm 4 mps 756 mmHg 75%
05:00 +22°C° 0 mm 3 mps 756 mmHg 74%
06:00 +25°C° 0 mm 4 mps 757 mmHg 68%
07:00 +26°C° 0 mm 4 mps 758 mmHg 62%
08:00 +28°C° 0 mm 5 mps 758 mmHg 56%
09:00 +30°C° 0 mm 5 mps 758 mmHg 46%
10:00 +34°C° 0 mm 4 mps 758 mmHg 37%
11:00 +36°C° 0 mm 4 mps 758 mmHg 28%
12:00 +36°C° 0 mm 4 mps 757 mmHg 29%
13:00 +36°C° 0 mm 4 mps 756 mmHg 30%
14:00 +36°C° 0 mm 5 mps 756 mmHg 31%
15:00 +34°C° 0 mm 4 mps 756 mmHg 39%
16:00 +33°C° 0 mm 4 mps 756 mmHg 46%
17:00 +30°C° 0 mm 4 mps 756 mmHg 53%
18:00 +29°C° 0 mm 4 mps 756 mmHg 60%
19:00 +27°C° 0 mm 4 mps 757 mmHg 66%
20:00 +26°C° 0 mm 3 mps 758 mmHg 72%
21:00 +26°C° 0 mm 3 mps 758 mmHg 74%
22:00 +25°C° 0 mm 4 mps 757 mmHg 76%
23:00 +25°C° 0 mm 4 mps 757 mmHg 78%

4 March, Thursday

Time Temperature Precipitation Wind Pressure Humidity
00:00 +23°C° 0 mm 4 mps 757 mmHg 79%
01:00 +23°C° 0 mm 4 mps 757 mmHg 80%
02:00 +22°C° 0 mm 4 mps 756 mmHg 82%
03:00 +22°C° 0 mm 4 mps 756 mmHg 82%
04:00 +22°C° 0 mm 4 mps 756 mmHg 83%
05:00 +21°C° 0 mm 3 mps 756 mmHg 83%
06:00 +24°C° 0 mm 3 mps 757 mmHg 77%
07:00 +26°C° 0 mm 3 mps 758 mmHg 70%
08:00 +27°C° 0 mm 3 mps 758 mmHg 64%
09:00 +29°C° 0 mm 3 mps 758 mmHg 56%
10:00 +32°C° 0 mm 4 mps 758 mmHg 48%
11:00 +34°C° 0 mm 4 mps 759 mmHg 40%
12:00 +34°C° 0 mm 4 mps 758 mmHg 39%
13:00 +34°C° 0 mm 5 mps 757 mmHg 39%
14:00 +34°C° 0 mm 5 mps 756 mmHg 38%
15:00 +33°C° 0 mm 5 mps 756 mmHg 43%
16:00 +32°C° 0 mm 5 mps 756 mmHg 47%
17:00 +29°C° 0 mm 5 mps 756 mmHg 52%
18:00 +28°C° 0 mm 4 mps 757 mmHg 57%
19:00 +27°C° 0 mm 3 mps 758 mmHg 63%
20:00 +25°C° 0 mm 3 mps 758 mmHg 68%
21:00 +25°C° 0 mm 3 mps 758 mmHg 70%
22:00 +24°C° 0 mm 3 mps 758 mmHg 72%
23:00 +24°C° 0 mm 3 mps 758 mmHg 74%

5 March, Friday

Time Temperature Precipitation Wind Pressure Humidity
00:00 +22°C° 0 mm 3 mps 758 mmHg 76%
01:00 +22°C° 0 mm 3 mps 757 mmHg 78%
02:00 +21°C° 0 mm 3 mps 756 mmHg 80%
03:00 +21°C° 0 mm 3 mps 757 mmHg 81%
04:00 +21°C° 0 mm 3 mps 757 mmHg 82%
05:00 +20°C° 0 mm 4 mps 757 mmHg 82%
06:00 +22°C° 0 mm 4 mps 758 mmHg 75%
07:00 +25°C° 0 mm 4 mps 759 mmHg 67%
08:00 +27°C° 0 mm 4 mps 759 mmHg 60%
09:00 +29°C° 0 mm 4 mps 759 mmHg 51%
10:00 +32°C° 0 mm 4 mps 759 mmHg 42%
11:00 +35°C° 0 mm 4 mps 759 mmHg 33%
12:00 +35°C° 0 mm 5 mps 758 mmHg 33%
13:00 +35°C° 0 mm 5 mps 757 mmHg 34%
14:00 +36°C° 0 mm 5 mps 756 mmHg 34%
15:00 +34°C° 0 mm 5 mps 756 mmHg 43%
16:00 +32°C° 0 mm 5 mps 756 mmHg 52%
17:00 +29°C° 0 mm 5 mps 756 mmHg 61%
18:00 +28°C° 0 mm 4 mps 756 mmHg 68%
19:00 +27°C° 0 mm 4 mps 757 mmHg 75%
20:00 +25°C° 0 mm 3 mps 758 mmHg 81%
21:00 +25°C° 0 mm 3 mps 758 mmHg 84%
22:00 +25°C° 0 mm 3 mps 758 mmHg 86%
23:00 +24°C° 0 mm 3 mps 757 mmHg 88%
Show more